www.pogodaiklimat.ru
ПОГОДА в Ломпоке
Время
и дата
13:56 28.11
14:56 28.11
15:56 28.11
16:53 28.11
16:56 28.11
17:56 28.11
18:19 28.11
18:56 28.11
19:56 28.11
20:56 28.11
21:56 28.11
22:56 28.11
23:56 28.11
00:56 29.11
01:56 29.11
02:56 29.11
03:56 29.11
04:56 29.11
05:56 29.11
06:56 29.11
07:56 29.11
08:56 29.11
09:56 29.11
10:56 29.11
11:56 29.11
12:56 29.11
13:56 29.11
14:56 29.11
15:56 29.11
16:56 29.11
17:56 29.11
18:56 29.11
19:56 29.11
20:56 29.11
21:56 29.11
22:56 29.11
23:56 29.11
00:56 30.11
01:56 30.11
02:56 30.11
03:56 30.11
04:56 30.11
05:56 30.11
06:56 30.11
07:56 30.11
08:56 30.11
09:56 30.11
10:56 30.11
Ветер
(напр.,м/с)
Видим. Явления Облачность Т
(С)
Тd
(С)
f
(%)
Тe
(С)
Тes
(С)
Комфортность P
(гПа)
Po
(гПа)
Тmin
(С)
Tmax
(С)
R
(мм)
R24
(мм)
S
(см)
З 5
{8}
16 км ясно +15.6 +10.6 72 +14 +18 1013.6 1010.2
СЗ 6 16 км ясно +15.6 +9.4 67 +14 +16 1013.6 1010.2
СЗ 7
{10}
16 км ясно +13.9 +10.0 77 +12 +12 1013.4 1009.9 +12.2 +15.6
СЗ 5
{9}
16 км 8/8 510 м +13.0 +10.0 82 +11 +11 1010.2
СЗ 7
{9}
16 км 8/8 510 м +12.8 +10.0 83 +10 +10 1013.6 1010.2
СЗ 5
{8}
16 км 10/10 450 м +12.8 +10.6 86 +11 +11 1013.7 1010.2
16 км 5/5 450 м +12.0 +10.0 88 +11 +11 1010.2
СЗ 3 16 км ясно +11.7 +10.0 89 +10 +10 1013.8 1010.2
СЗ 3 16 км ясно +11.7 +8.3 80 +10 +10 1014.1 1010.5
СЗ 2 16 км ясно +11.7 +7.8 77 +11 +11 1014.6 1011.2
нст 2 16 км ясно +11.1 +7.2 77 +10 +10 1015.1 1011.5 +11.1 +13.9
З 2 16 км ясно +10.0 +7.8 86 +8 +8 1014.9 1011.5
штиль 0 16 км ясно +6.1 +5.0 93 +5 +5 1014.8 1011.2
СЗ 3 16 км ясно +7.8 +5.0 82 +5 +5 1014.9 1011.5
В 2 16 км ясно +3.9 +3.3 96 +1 +1 1015.0 1011.5
штиль 0 16 км ясно +2.8 +2.2 96 +2 +2 1015.0 1011.5
В 2 16 км ясно +1.7 +1.7 100 -2 -2 1015.2 1011.5 +1.1 +10.6
штиль 0 16 км ясно +1.1 +0.6 96 0 0 1015.0 1011.5
штиль 0 16 км ясно +0.6 +0.6 100 -1 -1 1015.1 1011.5
штиль 0 16 км ясно +1.1 +0.6 96 0 0 1015.7 1012.2
В 2 16 км ясно +2.8 +2.8 100 -1 -1 1016.0 1012.6
штиль 0 16 км ясно +9.4 +4.4 71 +9 +10 1016.1 1012.6
ЮВ 2 16 км ясно +11.7 +5.0 63 +11 +13 1016.4 1012.9 +12.2
штиль 0 16 км ясно +13.9 +5.0 55 +14 +20 1016.2 1012.6
ЮЗ 4 16 км ясно +14.4 +5.6 55 +13 +17 1016.0 1012.6
СЗ 3 16 км ясно +15.0 +5.0 51 +14 +20 1015.1 1011.5
З 5 16 км ясно +15.0 +6.7 58 +14 +17 1014.9 1011.5
З 5 16 км ясно +15.0 +5.6 53 +14 +16 1014.7 1011.2
З 6 16 км ясно +13.3 +6.1 62 +11 +12 1015.0 1011.5 +12.2 +16.1
З 3 16 км ясно +11.1 +6.7 74 +9 +10 1015.5 1011.9
штиль 0 16 км ясно +10.0 +7.2 83 +9 +9 1016.0 1012.6
В 2 16 км ясно +7.2 +5.6 90 +5 +5 1016.7 1013.2
В 2 16 км ясно +6.1 +4.4 89 +4 +4 1017.0 1013.6
В 2 16 км ясно +4.4 +3.9 97 +1 +1 1017.3 1013.9
В 2 16 км ясно +3.9 +3.3 96 +1 +1 1017.4 1013.9 +3.9 +13.3
В 3 16 км ясно +3.9 +3.3 96 0 0 1017.4 1013.9
В 3 16 км ясно +3.9 +3.3 96 0 0 1017.1 1013.6
В 4 16 км ясно +3.9 +3.3 96 -1 -1 1016.8 1013.2
В 3 16 км ясно +3.3 +2.8 97 -1 -1 1016.5 1012.9
В 4 16 км ясно +2.8 +2.8 100 -2 -2 1016.2 1012.9
В 3 16 км ясно +3.3 +2.8 97 -1 -1 1016.0 1012.6 +2.8 +5.0
В 3 16 км ясно +2.8 +2.8 100 -2 -2 1016.2 1012.6
В 3 16 км 8/8 1200 м +3.3 +3.3 100 -1 -1 1016.6 1013.2
В 3 16 км 10/10 1200 м +5.0 +3.9 93 +1 +1 1016.9 1013.6
В 3 16 км 10/10 1260 м +6.7 +5.0 89 +4 +4 1017.3 1013.9
В 2 16 км 10/10 1080 м +7.8 +5.6 86 +6 +6 1017.4 1013.9
ЮВ 2 16 км 10/10 1080 м +10.0 +6.7 80 +9 +9 1017.6 1014.2 +2.8 +10.0
В 3 16 км 10/10 1440 м +12.8 +7.8 72 +11 +11 1017.1 1013.6
Местоположение метеостанции Lompoc Airport: широта 34.6667 долгота -120.4667 высота над уровнем моря 27 м.
В архиве по умолчанию представлена погода в Ломпоке за последние 1-2 суток. Обновление информации о фактической погоде в базе происходит ежечасно! Архивные данные за месяц целиком и за предыдущие месяцы Вы можете получить, выбрав интересующий диапазон дат из раскрывающегося списка и нажав кнопку "Ввод!".
Внимание! Архив погоды МЕТАР в базе сайта по станциям, не включенным в климатический монитор, хранится не более 60 дней. Нет смысла пытаться выбрать более раннюю дату.
*Определитесь, кто Вы:
Внимание! Время в таблицах - местное (без учета летнего времени). Для получения всемирного времени необходимо вычесть поправку, которая равна -8 ч.
Смотрите также архив погоды в соседних городах и на ближайших метеорологических станциях:
Партнеры нашего сайта:      
Пояснения к столбцам:
  • Ветер - указаны скорость ветра в м/с - средняя за 10 мин, порывы в срок и между сроками (в фигурных скобках) и направление, откуда дует ветер: С - северный,
  • СВ - северо-восточный, В - восточный, ЮВ - юго-восточный, Ю - южный, ЮЗ - юго-западный, З - западный, СЗ - северо-западный.
  • Видимость - горизонтальная дальность видимости в метрах или километрах. При видимости от 1 до 10 км при отсутствии осадков обычно наблюдается дымка, при ухудшении видимости до 1 км и менее - туман. В сухую погоду видимость может ухудшаться дымом, пылью или мглою.
  • Явления - указаны атмосферные явления, наблюдавшиеся в срок или в последний час перед сроком; фигурными скобками обозначены явления, наблюдавшиеся между сроками (за 1-3 часа до срока); квадратными скобками обозначены град или гололедные отложения с указанием их диаметра в мм.
  • Облачность - указаны через наклонную черту общая и нижняя облачность в баллах и высота нижней границы облаков в метрах; квадратными скобками обозначены формы облаков: Ci - перистые, Cs - перисто-слоистые, Cc - перисто-кучевые, Ac - высококучевые, As - высокослоистые, Sc - слоисто-кучевые, Ns - слоисто-дождевые, Cu - кучевые, Cb - кучево-дождевые. Подробнее классификацию облаков см. в Атласе облаков (PDF).
  • T - Температура воздуха - температура, измеренная на высоте 2 м над землей.
  • Td - Температура точки росы - температура, при понижении до которой содержащийся в воздухе водяной пар достигнет насыщения.
  • f - Относительная влажность воздуха - влажноcть воздуха, измеренная на высоте 2 м над землей.
  • Te - Эффективная температура - температура, которую ощущает одетый по сезону человек в тени. Характеристика душности погоды. При расчете учитывается влияние влажности воздуха и скорости ветра на теплоощущения человека.
  • Tes - Эффективная температура на солнце - температура, которую ощущает человек, с поправкой на солнечный нагрев. Характеристика знойности погоды. Зависит от высоты солнца над горизонтом, облачности и скорости ветра. Ночью, в пасмурную погоду, а также при ветре 12 м/с и более поправка равна нулю.
  • P - Атмосферное давление - приведенное к уровню моря атмосферное давление.
  • Po - Атмосферное давление - измеренное на уровне метеостанции атмосферное давление.
  • Tmin - Минимальная температура - минимум температуры воздуха на высоте 2 м над землей.
  • Tmax - Максимальная температура - максимум температуры воздуха на высоте 2 м над землей.
  • R - Количество осадков - Количество выпавших осадков за период времени, мм. При наведении курсора мыши на число - период времени, за который выпало указанное количество осадков.
  • R24 - Количество осадков - Количество выпавших осадков за 24 часа, мм.
  • S - Снежный покров - Высота снежного покрова, см. При наведении курсора мыши на число - состояние снежного покрова и степень покрытия местности в баллах.